User: anonymous   Login
Location: Cosy Dell
(34.2789°N, 117.4537°W)
Time: 00:40:51
(UTC+00:00)
Language:

NOSS 3-4 (A) - Orbit

View from above orbital plane
View from above orbital plane
View from above satellite
View from above satellite

Ground track
Ground track

The orbit data is extracted from the following two-line orbital elements,

1 31701U 07027A   20271.80661366 0.00000000  00000-0  00000-0 0    09
2 31701  63.3997 265.8208 0293564  19.5506 340.4494 13.40805543    08
Epoch (UTC): 27 September 2020 19:21:31
Eccentricity: 0.0293564
inclination: 63.3997°
perigee height: 886 km
apogee height: 1326 km
right ascension of ascending node: 265.8208°
argument of perigee: 19.5506°
revolutions per day: 13.40805543
mean anomaly at epoch: 340.4494°
orbit number at epoch: 0

The dashed part of the orbit path shows where the satellite is in the earth's shadow,  

DLR